Weather Service Report


650 
ASUS41 KAKQ 281214
RWRAKQ

REGIONAL WEATHER ROUNDUP
NATIONAL WEATHER SERVICE WAKEFIELD VA
800 AM EDT TUE APR 28 2015

Note: "fair" indicates few or no clouds below 12,000 feet with no
significant weather and/or obstructions to visibility. * = Denotes
station may not report precipitation (e.g., rain,snow,etc.),
thunder or fog.

VAZ042-051-052>054-056-281300-
NORTHERN VIRGINIA
  
CITY           SKY/WX    TMP DP  RH WIND       PRES   REMARKS
WASH NATIONAL  MOSUNNY   53  37  54 NW12      29.93R                  
DULLES         MOSUNNY   49  37  63 NW13      29.94R                  
FORT BELVOIR   SUNNY     51  37  59 NW15      29.93R                  
QUANTICO       MOSUNNY   51  36  56 N12G24    29.95R                  
FREDERICKSBRG* MOSUNNY   48  37  66 NW9       29.94R                  
STAFFORD*      MOSUNNY   48  36  64 NW9       29.98R                  
WARRENTON      SUNNY     52  40  64 NW7       29.95R                  
CULPEPER*      SUNNY     52  37  58 NW9       29.95S                  
MANASSAS*      SUNNY     48  37  66 NW10      29.94R                  
LEESBURG*      MOSUNNY   50  41  71 NW17G26   29.95R                  
WINCHESTER     PTSUNNY   50  32  50 W12       29.98R                  
FRONT ROYAL*   PTSUNNY   45  36  70 CALM      29.99R                  
LURAY*         FAIR      46  37  71 CALM      29.99R                  
$$

VAZ048-049-060>072-079>083-281300-
CENTRAL AND SOUTH CENTRAL VIRGINIA
  
CITY           SKY/WX    TMP DP  RH WIND       PRES   REMARKS
RICHMOND       MOSUNNY   50  35  56 N14       29.94S                  
CHESTERFIELD*  FAIR      48  28  46 N10       29.96S                  
PETERSBURG*    SUNNY     49  34  56 NW9       29.95S                  
HANOVER        SUNNY     47  35  63 NW8       29.96S                  
TAPPAHANNOCK*  SUNNY     47  33  57 W7        29.94R                  
QUINTON*       FAIR      46  35  65 NW8       29.94S                  
CHARLOTTSVILLE SUNNY     48  34  58 VRB3      29.97R                  
GORDONSVILLE*  FAIR      48  34  59 W6        29.96R                  
ORANGE*        SUNNY     46  36  66 SW6       29.97R                  
LOUISA*        SUNNY     46  36  66 W6        29.95S                  
BUMPASS*       FAIR      45  35  67 W3        29.96S                  
FARMVILLE*     SUNNY     48  35  60 CALM      29.96S                  
CREWE*         FAIR      47  32  56 NW9       29.95S                  
FORT PICKETT*  FAIR      46  33  60 N10G16    29.95S                  
CHASE CITY*    FAIR      45  39  78 CALM      29.97S                  
CLARKSVILLE*   FAIR      43  36  75 CALM      29.97S                  
SOUTH HILL*    SUNNY     45  34  66 NW3       30.02R                  
LAWRENCEVILLE* FAIR      44  35  71 CALM      29.95R                  
EMPORIA*       SUNNY     45  36  70 W6        29.97R                  
$$

VAZ088>098-281300-
SOUTHEAST VIRGINIA
  
CITY           SKY/WX    TMP DP  RH WIND       PRES   REMARKS
NORFOLK        SUNNY     51  37  58 N13       29.89S                  
VIRGINIA BEACH SUNNY     53  40  61 N17       29.89S                  
NORFOLK NAVAL  MOSUNNY   53  38  56 NW14      29.91S                  
WEST POINT*    SUNNY     49  35  58 NW6       29.94F                  
SALUDA*        FAIR      48  38  69 NW10G17   29.92R                  
NEWPORT NEWS   SUNNY     52  37  56 N12       29.91S                  
LANGLEY AFB    SUNNY     50  38  63 NW12G22   29.89S                  
FORT EUSTIS    SUNNY     49  38  65 N8        29.90R                  
WILLIAMSBURG*  SUNNY     48  39  71 N14       29.93S                  
HR EXEC AP*    FAIR      48  37  66 NW5       29.93S                  
FRANKLIN*      SUNNY     46  36  70 NW7       29.94R                  
WAKEFIELD      SUNNY     49  36  61 NW5       29.93S                  
$$

VAZ020-022-025-037-045-281300-
WEST CENTRAL AND SOUTHWEST VIRGINIA
  
CITY           SKY/WX    TMP DP  RH WIND       PRES   REMARKS
STAUNTON*      SUNNY     42  33  71 CALM      30.02R                  
WAYNESBORO*    FAIR      42  32  68 W3        30.00R                  
HOT SPRINGS VA SUNNY     33  29  83 NW7       29.93S                  
LYNCHBURG      SUNNY     46  32  58 N8        29.97F                  
DANVILLE       SUNNY     48  35  60 N8        29.98S                  
SOUTH BOSTON*  FAIR      42  39  86 CALM      29.98F                  
MARTINSVILLE   SUNNY     39  39 100 CALM      30.01S                  
ROANOKE        SUNNY     47  33  58 CALM      30.01S                  
BLACKSBURG     SUNNY     41  30  66 NW3       30.02R                  
DUBLIN*        MOSUNNY   43  35  72 N3        30.01S                  
MARION*        SUNNY     39  34  81 SW3       30.01S                  
HILLSVILLE*    SUNNY     38  33  80 N9        29.96F                  
RICHLANDS*     FAIR      39  15  37 E3        30.00S                  
WISE*          SUNNY     39  34  81 NE7       30.02R                  
ABINGDON*      SUNNY     44  37  75 CALM      30.01R                  
$$

MDZ021>025-VAZ099-100-281300-
SOUTHERN MARYLAND AND THE DELMARVA PENINSULA
  
CITY           SKY/WX    TMP DP  RH WIND       PRES   REMARKS
PATUXENT RIVER MOSUNNY   51  39  63 NW14      29.90R                  
BAY BRIDGE APT   N/A    N/A N/A N/A NW8G16    29.89S                  
LEONARDTOWN    MOSUNNY   48  36  61 NW6       29.92R                  
DOVER          SUNNY     52  42  67 NW15G21   29.81R                  
GEORGETOWN     SUNNY     51  39  63 VRB7      29.85R                  
EASTON         MOSUNNY   54  41  62 NW17G25   29.92R                  
CAMBRIDGE      SUNNY     54  41  62 NW12G18   29.88R                  
SALISBURY      SUNNY     51  39  63 NW12      29.86R                  
OCEAN CITY     SUNNY     50  39  66 NW13      29.84R                  
WALLOPS ISLAND MOSUNNY   51  41  68 NW12      29.87R                  
ACCOMACK*      SUNNY     52   5  15 NW12G17   29.88S                  
$$

NCZ012>017-030>032-281300-
NORTH CENTRAL AND EASTERN NORTH CAROLINA
  
CITY           SKY/WX    TMP DP  RH WIND       PRES   REMARKS
ROANOKE RAPIDS FAIR      46  36  66 N8        29.95F                  
RALEIGH        MOSUNNY   48  36  63 N6        29.98R                  
ELIZABETH CITY SUNNY     48  38  68 NW9       29.91S                  
AHOSKIE*       SUNNY     46  36  69 N5        29.95S                  
EDENTON*       SUNNY     49  39  66 N15G21    29.92F                  
CURRITUCK*     SUNNY     46  37  70 W6        29.92R                  
KILL DEVIL HLS SUNNY     50  40  68 NW7       29.89R                  
MANTEO         SUNNY     50  39  64 N12G21    29.90S                  
CAPE HATTERAS  MOSUNNY   51  40  65 N8        29.89S                  
TARBORO*       FAIR      45  40  82 W3        29.97R                  
GOLDSBORO      MOSUNNY   50  37  59 N8        29.95R                  
WASHINGTON     MOSUNNY   46  38  74 NW5       29.94R                  
GREENVILLE     MOSUNNY   48  37  66 N7        29.97R                  
NEW BERN       PTSUNNY   50  37  61 N8        29.96R                  
WILMINGTON     MOSUNNY   52  38  58 N9        29.96R                  
$$

VAZ048-281300-
ELSEWHERE
  
CITY           SKY/WX    TMP DP  RH WIND       PRES   REMARKS
HARRISBURG PA  MOSUNNY   51  37  58 NW14      29.90R                  
BALTIMORE      MOSUNNY   52  38  58 NW13      29.89R                  
ANNAPOLIS      SUNNY     52  38  58 NW12      29.89S                  
ANDREWS AFB    SUNNY     50  38  62 W13       29.91R                  
PHILADELPHIA   MOSUNNY   53  39  59 NW16      29.84R                  
HENDERSON NC   SUNNY     45  34  65 N6        29.97S                  
GREENSBORO     MOSUNNY   47  35  63 N7        29.97S                  
ROCKY MOUNT    SUNNY     48  37  65 N12       29.96R                  
$$

VAZ100-281300-
MARINE
  
STATION/POSITION TIME  TEMP    WIND        PRES    WAVE   SWELL
                       AIR SEA DIR/SP/G            HT/PER HT/PER
                 (UTC) (F)     (DEG/KT/KT) (MB)    (FT/S) (FT/S)
BRANDYWINE LGT   1112   51 52  340/ 16/ 22 1009.9R
CAPE MAY NJ      1112   52 55  330/ 17/ 25 1009.5R
LEWES DE         1100   51 52  310/ 14/ 17 1009.8R
15NM E FENWICK I 1150   50 47              1009.5R   3/ 5
OCEAN-CITY-INLET 1112   48 50  330/ 12/ 14 1009.9R
WACHAPREAGUE VA  1100   51 56  320/  4/ 12 1011.2R
THOMAS POINT MD  1200   49 53  300/ 12/ 13 1013.0R
GOOSES REEF MD   1200   50 53  340/ 17/ 21   N/A     2/ 3
COVE POINT MD    1100   49     340/ 19/ 23 1012.4R
SOLOMONS ISLAND  1112      56                N/A
BISHOPS HEAD MD  1118   50 52  320/ 16/ 20 1011.3R
PINEY POINT MD   1100          340/ 18/ 20   N/A
CAMBRIDGE MD     1112   51 58  300/ 12/ 17 1011.5R
LEWISETTA VA     1100   50 57              1012.2R
RAPPAHANNOCK LGT 1100          310/ 18/ 19 1012.6R
YORK RVR RNG VA  1112   48     330/ 19/ 22 1012.2R
YORKTOWN VA      1112   49 59  330/ 18/ 21 1012.5R
JAMESTOWN VA     1200   48 62  360/ 12/ 17 1012.4R
DOMINION TERM VA 1100   49      60/  3/  8 1012.3R
KIPTOPEKE VA     1100      61  340/ 19/ 24   N/A
CHES BAY BRIDGE  1112   50 56  320/ 23/ 26 1011.7R
CAPE HENRY VA    1100   49     320/ 23/ 26 1010.6R
CHESAPEAKE LGHT  1100   50     330/ 27/ 29 1011.5R
WILLOUBY STN VA  1100   48     330/ 17/ 20 1012.9R
S CRANEY ISL VA  1112          330/ 11/ 16 1012.6R
CAPE HENRY BUOY  1128      51                N/A     4/ 5
OFFSHORE WE BUOY 1111      50                N/A     5/ 5   2/11
64NM E OF VA BCH 1150   52 54  330/ 23/ 27 1009.9R   6/ 6
DUCK PIER NC     1112   49 54  310/ 14/ 18 1011.1R
44056 DUCK FRF   1111      54                N/A     3/ 5
OREGON INLET NC  1112   51 57  320/ 12/ 17 1011.9R
HATTERAS NC      1112   53 61  330/ 15/ 17 1011.6R
DIAMOND SHLS NC  1150   56 74  340/ 14/ 19 1012.0R   4/ 4   2/ 7
CAPE LOOKOUT NC  1200   53     350/ 13/ 16 1013.2R
$$

Return to Home page


Western Regional Climate Center, wrcc@dri.edu